Glens Falls, NY

6:28 PM EDT on June 22, 2017 (GMT -0400)
Bennett Memorial

Weather History for KGFL - March, 2013

Change the Weather History Date:

Monday, March 25, 2013

  Actual Average Record
Temperature  
Mean Temperature 34 °F 35 °F  
Max Temperature 42 °F 46 °F 67 °F (1987)
Min Temperature 26 °F 24 °F 2 °F (2014)
Degree Days  
Heating Degree Days 31 30  
Month to date heating degree days 822 874  
Since 1 July heating degree days 5923 6494  
Cooling Degree Days 0 0  
Month to date cooling degree days 0 0  
Year to date cooling degree days 0 0  
Moisture  
Dew Point 23 °F    
Average Humidity 61    
Maximum Humidity 75    
Minimum Humidity 46    
Precipitation  
Precipitation T in 0.10 in 0.72 in (1969)
Month to date precipitation 2.81 2.38  
Year to date precipitation 5.11 7.32  
Sea Level Pressure  
Sea Level Pressure 29.68 in    
Wind  
Wind Speed 6 mph (NNE)    
Max Wind Speed 14 mph    
Max Gust Speed 17 mph    
Visibility 10 miles    
Events      
T = Trace of Precipitation, MM = Missing Value Source: NWS Daily Summary

Daily Weather History Graph

Daily Weather History Graph

Search for Another Location

Airport or City:

Trip Planner

Search our weather history database for the weather conditions in past years. The results will help you decide how hot, cold, wet, or windy it might be!

Date:

Astronomy

Mar. 25, 2013 Rise Set
Actual Time 6:48 AM EDT 7:12 PM EDT
Civil Twilight 6:19 AM EDT 7:41 PM EDT
Nautical Twilight 5:46 AM EDT 8:15 PM EDT
Astronomical Twilight 5:11 AM EDT 8:50 PM EDT
Moon 5:40 PM EDT (3/25) 5:32 AM EDT (3/25)
Length of Visible Light 13h 21m
Length of Day
12h 24m
Waxing Gibbous, 96% of the Moon is Illuminated
Mar 25
Waxing Gibbous
Mar 27
Full
Apr 3
Last Quarter
Apr 10
New
Apr 18
First Quarter

Hourly Weather History & Observations

Time (EDT) Temp. Windchill Dew Point Humidity Pressure Visibility Wind Dir Wind Speed Gust Speed Precip Events Conditions
12:53 AM 28.9 °F 25.2 °F 21.0 °F 72% 29.81 in 10.0 mi NNE 3.5 mph - N/A   Clear
1:53 AM 28.0 °F 20.8 °F 19.9 °F 72% 29.79 in 10.0 mi North 6.9 mph - N/A   Clear
2:53 AM 28.0 °F - 19.9 °F 72% 29.78 in 10.0 mi Calm Calm - N/A   Clear
3:53 AM 28.9 °F 21.9 °F 19.9 °F 69% 29.76 in 10.0 mi North 6.9 mph - N/A   Clear
4:53 AM 28.0 °F 24.2 °F 19.9 °F 72% 29.75 in 10.0 mi NNE 3.5 mph - N/A   Clear
5:53 AM 28.0 °F 20.8 °F 19.9 °F 72% 29.75 in 10.0 mi North 6.9 mph - N/A   Clear
6:53 AM 28.9 °F 21.9 °F 19.9 °F 69% 29.74 in 10.0 mi North 6.9 mph - N/A   Partly Cloudy
7:53 AM 30.0 °F 23.2 °F 21.0 °F 69% 29.75 in 10.0 mi North 6.9 mph - N/A   Mostly Cloudy
8:53 AM 30.9 °F 22.8 °F 21.9 °F 69% 29.75 in 10.0 mi North 9.2 mph - N/A   Clear
9:53 AM 35.1 °F 31.0 °F 24.1 °F 64% 29.73 in 10.0 mi NE 4.6 mph - N/A   Clear
10:53 AM 37.0 °F 31.6 °F 23.0 °F 57% 29.71 in 10.0 mi NE 6.9 mph - N/A   Scattered Clouds
11:53 AM 37.9 °F 32.1 °F 24.1 °F 57% 29.68 in 10.0 mi NE 8.1 mph - N/A   Clear
12:53 PM 39.9 °F 32.9 °F 24.1 °F 53% 29.66 in 10.0 mi NNE 11.5 mph - N/A   Clear
1:53 PM 41.0 °F 34.7 °F 23.0 °F 49% 29.63 in 10.0 mi NNE 10.4 mph - N/A   Overcast
2:53 PM 41.0 °F 35.8 °F 23.0 °F 49% 29.61 in 10.0 mi NNE 8.1 mph - N/A   Overcast
3:53 PM 41.0 °F 34.7 °F 23.0 °F 49% 29.58 in 10.0 mi NNE 10.4 mph - N/A   Overcast
4:53 PM 41.0 °F 35.8 °F 24.1 °F 51% 29.57 in 10.0 mi North 8.1 mph - N/A   Overcast
5:53 PM 41.0 °F 39.0 °F 24.1 °F 51% 29.58 in 10.0 mi North 3.5 mph - N/A   Overcast
6:53 PM 41.0 °F 37.1 °F 24.1 °F 51% 29.60 in 10.0 mi NNE 5.8 mph - N/A   Overcast
7:53 PM 39.9 °F 36.7 °F 24.1 °F 53% 29.62 in 10.0 mi NE 4.6 mph - N/A   Overcast
8:53 PM 37.9 °F - 25.0 °F 60% 29.63 in 10.0 mi Calm Calm - N/A   Overcast
9:53 PM 37.9 °F 34.4 °F 27.0 °F 65% 29.64 in 10.0 mi NNE 4.6 mph - N/A   Overcast
10:53 PM 37.9 °F 33.5 °F 26.1 °F 62% 29.63 in 10.0 mi NNW 5.8 mph - N/A   Overcast
11:53 PM 37.0 °F 34.5 °F 27.0 °F 67% 29.63 in 10.0 mi NNE 3.5 mph - N/A   Overcast